Weather History for Antigo, WI

Change the Weather History Date:

Monday, November 19, 2012

  Actual Average Record
Temperature  
Mean Temperature 40 °F -  
Max Temperature 47 °F 38 °F 62 °F (1953)
Min Temperature 32 °F 22 °F 2 °F (1986)
Degree Days  
Heating Degree Days 26    
Moisture  
Dew Point 34 °F    
Average Humidity 78    
Maximum Humidity 90    
Minimum Humidity 59    
Precipitation  
Precipitation 0.00 in - - ()
Sea Level Pressure  
Sea Level Pressure 30.14 in    
Wind  
Wind Speed 5 mph (SSE)    
Max Wind Speed 10 mph    
Max Gust Speed -    
Visibility 8 miles    
Events Rain    
Averages and records for this station are not official NWS values.
T = Trace of Precipitation, MM = Missing Value Source: NWS Daily Summary

Daily Weather History Graph

Daily Weather History Graph

Search for Another Location

Airport:

Trip Planner

Search our weather history database for the weather conditions in past years. The results will help you decide how hot, cold, wet, or windy it might be!

Date:

Astronomy

Nov. 19, 2012 Rise Set
Actual Time 7:00 AM CST 4:22 PM CST
Civil Twilight 6:28 AM CST 4:55 PM CST
Nautical Twilight 5:52 AM CST 5:31 PM CST
Astronomical Twilight 5:17 AM CST 6:06 PM CST
Moon 11:57 AM CST (11/19) 10:57 PM CST (11/19)
Length of Visible Light 10h 26m
Length of Day
9h 22m
Waxing Crescent, 41% of the Moon is Illuminated
Nov 19
Waxing Crescent
Nov 20
First Quarter
Nov 28
Full
Dec 6
Last Quarter
Dec 13
New

Hourly Weather History & Observations

Time (CST) Temp. Windchill Dew Point Humidity Pressure Visibility Wind Dir Wind Speed Gust Speed Precip Events Conditions
12:15 AM 35.1 °F 31.0 °F 30.9 °F 85% 30.24 in 10.0 mi South 4.6 mph - N/A   Mostly Cloudy
12:35 AM 34.9 °F 30.8 °F 30.9 °F 85% 30.23 in 10.0 mi South 4.6 mph - N/A   Mostly Cloudy
12:55 AM 34.0 °F 28.8 °F 30.6 °F 87% 30.24 in 7.0 mi South 5.8 mph - N/A   Scattered Clouds
1:15 AM 34.9 °F 30.8 °F 30.7 °F 85% 30.22 in 10.0 mi SSE 4.6 mph - N/A   Clear
1:35 AM 34.0 °F 29.8 °F 30.7 °F 88% 30.23 in 7.0 mi SSE 4.6 mph - N/A   Clear
1:55 AM 32.5 °F 28.1 °F 29.8 °F 90% 30.23 in 7.0 mi SSE 4.6 mph - N/A   Clear
2:15 AM 32.7 °F 25.7 °F 30.0 °F 90% 30.22 in 7.0 mi SSE 8.1 mph - N/A   Clear
2:35 AM 33.4 °F 27.3 °F 30.9 °F 90% 30.22 in 7.0 mi SSE 6.9 mph - N/A   Clear
2:55 AM 35.2 °F 27.6 °F 31.6 °F 87% 30.21 in 7.0 mi SSE 10.4 mph - N/A   Scattered Clouds
3:15 AM 36.0 °F 29.0 °F 31.8 °F 85% 30.20 in 7.0 mi SSE 9.2 mph - N/A   Mostly Cloudy
3:35 AM 36.5 °F 30.3 °F 32.2 °F 84% 30.20 in 7.0 mi SSE 8.1 mph - N/A   Overcast
3:55 AM 36.7 °F 32.9 °F 32.0 °F 83% 30.20 in 7.0 mi SSE 4.6 mph - N/A   Overcast
4:15 AM 37.4 °F 33.8 °F 32.2 °F 81% 30.20 in 7.0 mi SSE 4.6 mph - N/A   Overcast
4:35 AM 37.0 °F 31.6 °F 32.2 °F 83% 30.20 in 7.0 mi SSE 6.9 mph - N/A   Overcast
4:55 AM 37.2 °F 31.9 °F 32.2 °F 82% 30.19 in 7.0 mi South 6.9 mph - N/A   Overcast
5:15 AM 37.8 °F 33.3 °F 32.5 °F 81% 30.19 in 7.0 mi South 5.8 mph - N/A   Overcast
5:35 AM 37.9 °F 32.7 °F 32.4 °F 80% 30.19 in 7.0 mi South 6.9 mph - N/A   Overcast
5:55 AM 37.6 °F 34.0 °F 32.4 °F 81% 30.19 in 7.0 mi SSE 4.6 mph - N/A   Overcast
6:15 AM 37.8 °F 34.2 °F 32.4 °F 81% 30.19 in 7.0 mi South 4.6 mph - N/A   Overcast
6:35 AM 37.8 °F 33.3 °F 32.4 °F 81% 30.19 in 7.0 mi South 5.8 mph - N/A   Overcast
6:55 AM 37.4 °F 34.9 °F 32.4 °F 82% 30.18 in 7.0 mi SSE 3.5 mph - N/A   Overcast
7:35 AM 37.4 °F 31.4 °F 32.5 °F 83% 30.20 in 5.0 mi South 8.1 mph - N/A   Overcast
7:55 AM 38.1 °F 33.7 °F 32.9 °F 81% 30.19 in 5.0 mi SSE 5.8 mph - N/A   Haze
8:15 AM 38.5 °F 34.1 °F 32.9 °F 80% 30.18 in 7.0 mi SSE 5.8 mph - N/A   Mostly Cloudy
8:35 AM 38.7 °F 34.3 °F 33.1 °F 80% 30.17 in 5.0 mi SSE 5.8 mph - N/A   Haze
8:55 AM 39.2 °F 34.2 °F 33.3 °F 79% 30.19 in 7.0 mi South 6.9 mph - N/A   Mostly Cloudy
9:15 AM 39.7 °F 35.6 °F 33.3 °F 78% 30.18 in 7.0 mi SSE 5.8 mph - N/A   Overcast
9:35 AM 41.4 °F 36.2 °F 33.8 °F 74% 30.17 in 7.0 mi SE 8.1 mph - N/A   Scattered Clouds
9:55 AM 42.3 °F 37.3 °F 34.0 °F 72% 30.18 in 7.0 mi SSE 8.1 mph - N/A   Clear
10:15 AM 43.2 °F 37.9 °F 33.6 °F 69% 30.18 in 10.0 mi South 9.2 mph - N/A   Clear
10:35 AM 43.9 °F 39.9 °F 33.6 °F 67% 30.18 in 10.0 mi South 6.9 mph - N/A   Clear
10:55 AM 45.5 °F 43.2 °F 33.8 °F 64% 30.17 in 10.0 mi South 4.6 mph - N/A   Clear
11:15 AM 45.9 °F 43.6 °F 33.8 °F 63% 30.16 in 10.0 mi SSE 4.6 mph - N/A   Clear
11:35 AM 47.3 °F - 33.6 °F 59% 30.16 in 10.0 mi South 4.6 mph - N/A   Clear
11:55 AM 46.4 °F 44.3 °F 33.6 °F 61% 30.15 in 10.0 mi SSE 4.6 mph - N/A   Clear
12:15 PM 46.4 °F 45.2 °F 34.0 °F 62% 30.14 in 10.0 mi SSE 3.5 mph - N/A   Mostly Cloudy
12:35 PM 46.6 °F - 34.5 °F 63% 30.13 in 10.0 mi SSE 4.6 mph - N/A   Overcast
12:55 PM 47.3 °F - 34.9 °F 62% 30.14 in 10.0 mi South 10.4 mph - N/A   Overcast
1:15 PM 46.9 °F - 34.7 °F 62% 30.13 in 10.0 mi South 6.9 mph - N/A   Overcast
1:35 PM 45.9 °F 41.7 °F 35.6 °F 67% 30.10 in 10.0 mi ESE 8.1 mph - N/A   Overcast
1:55 PM 46.6 °F - 36.0 °F 67% 30.10 in 10.0 mi Calm Calm - N/A   Overcast
2:15 PM 46.9 °F - 36.1 °F 66% 30.09 in 10.0 mi SE 3.5 mph - N/A   Overcast
2:35 PM 46.9 °F - 36.3 °F 67% 30.10 in 10.0 mi Calm Calm - N/A   Overcast
2:55 PM 46.6 °F - 36.5 °F 68% 30.09 in 10.0 mi SSE 3.5 mph - N/A   Overcast
3:15 PM 46.0 °F - 36.3 °F 69% 30.09 in 10.0 mi Calm Calm - N/A   Overcast
3:35 PM 45.9 °F 42.9 °F 36.0 °F 68% 30.09 in 10.0 mi SSE 5.8 mph - N/A   Overcast
3:55 PM 45.0 °F 42.6 °F 36.5 °F 72% 30.09 in 10.0 mi SSE 4.6 mph - N/A   Overcast
4:15 PM 44.6 °F 39.7 °F 35.6 °F 71% 30.09 in 10.0 mi SE 9.2 mph - N/A   Overcast
4:35 PM 44.6 °F 40.2 °F 35.6 °F 71% 30.09 in 10.0 mi SSE 8.1 mph - N/A   Overcast
4:55 PM 43.7 °F 40.3 °F 35.8 °F 74% 30.10 in 10.0 mi SSE 5.8 mph - N/A   Overcast
5:15 PM 43.7 °F 39.1 °F 35.6 °F 73% 30.10 in 10.0 mi SSE 8.1 mph - N/A   Overcast
5:35 PM 43.5 °F 39.4 °F 35.6 °F 74% 30.10 in 10.0 mi SSE 6.9 mph - N/A   Overcast
5:55 PM 42.1 °F 38.4 °F 37.4 °F 83% 30.09 in 7.0 mi SSE 5.8 mph - N/A   Light Drizzle
6:15 PM 41.9 °F 36.9 °F 37.6 °F 85% 30.09 in 7.0 mi SE 8.1 mph - N/A Rain Light Rain
6:35 PM 41.5 °F 36.4 °F 37.8 °F 86% 30.08 in 7.0 mi SE 8.1 mph - N/A   Overcast
6:55 PM 41.4 °F 37.6 °F 37.8 °F 87% 30.08 in 7.0 mi SE 5.8 mph - N/A   Overcast
7:15 PM 41.5 °F 37.8 °F 37.6 °F 86% 30.08 in 7.0 mi SSE 5.8 mph - N/A   Overcast
7:35 PM 41.4 °F 36.8 °F 37.6 °F 86% 30.08 in 7.0 mi SSE 6.9 mph - N/A   Overcast
7:55 PM 41.5 °F 37.8 °F 37.4 °F 85% 30.08 in 7.0 mi SSE 5.8 mph - N/A   Overcast
8:15 PM 41.4 °F 38.4 °F 37.0 °F 85% 30.08 in 7.0 mi South 4.6 mph - N/A   Overcast
8:35 PM 41.0 °F 38.0 °F 36.5 °F 84% 30.07 in 7.0 mi SSE 4.6 mph - N/A   Overcast
9:15 PM 40.3 °F 38.2 °F 36.1 °F 85% 30.07 in 7.0 mi SSE 3.5 mph - N/A   Overcast
9:35 PM 40.1 °F - 36.0 °F 85% 30.07 in 7.0 mi Calm Calm - N/A   Overcast
9:55 PM 40.6 °F - 35.8 °F 83% 30.06 in 7.0 mi Calm Calm - N/A   Overcast
10:15 PM 40.6 °F - 36.5 °F 85% 30.06 in 7.0 mi Calm Calm - N/A   Overcast
10:35 PM 40.5 °F 38.4 °F 36.5 °F 86% 30.06 in 7.0 mi South 3.5 mph - N/A   Overcast
10:55 PM 40.8 °F - 36.3 °F 84% 30.06 in 7.0 mi Calm Calm - N/A   Overcast
11:15 PM 40.6 °F - 36.5 °F 85% 30.06 in 7.0 mi Calm Calm - N/A   Overcast
11:35 PM 40.5 °F - 36.9 °F 87% 30.06 in 7.0 mi Calm Calm - N/A Rain Light Rain
11:55 PM 40.1 °F - 37.4 °F 90% 30.06 in 7.0 mi Calm Calm - N/A   Overcast